User: anonymous   Login
Location: *
(51.1248°S, 108.4023°W)
Time: 13:04:25
(UTC+00:00)
Language:

Cosmos 1862 Rocket - Orbit

View from above orbital plane
View from above orbital plane
View from above satellite
View from above satellite

Ground track
Ground track

The orbit data is extracted from the following two-line orbital elements,

1 18153U 87055B   21265.75043045  .00000091  00000-0  82141-5 0  9998
2 18153  82.4974  81.0736 0021325 352.9177   7.1733 14.83343809828312
Epoch (UTC): 22 September 2021 18:00:37
Eccentricity: 0.0021325
inclination: 82.4974°
perigee height: 604 km
apogee height: 634 km
right ascension of ascending node: 81.0736°
argument of perigee: 352.9177°
revolutions per day: 14.83343809
mean anomaly at epoch: 7.1733°
orbit number at epoch: 82831

The dashed part of the orbit path shows where the satellite is in the earth's shadow,  

DLR